Regional Weather Roundup
Issued by NWS

Home | Current Version | Previous Version | Text Only | Print | Product List | Glossary Off
Versions: 1 2 3 4 5 6 7 8 9 10 11 12 13 14 15 16 17 18 19 20 21 22 23 24 25 26 27 28 29 30 31 32 33 34 35 36 37 38 39 40 41 42 43 44 45 46 47 48 49 50

000
ASUS45 KTFX 302219
RWRMT
MONTANA HOURLY WEATHER ROUNDUP
NATIONAL WEATHER SERVICE GREAT FALLS MT
419 PM MDT THU OCT 30 2014

NOTE: "FAIR" INDICATES FEW OR NO CLOUDS BELOW 12000 FEET WITH NO
SIGNIFICANT WEATHER AND/OR OBSTRUCTIONS TO VISIBILITY.

* THESE STATIONS ARE NOT UNDER NWS QUALITY CONTROL. THEY DO NOT
   REPORT WEATHER SUCH AS PRECIPITATION OR FOG.

MTZ001>007-043-302300-
WEST OF THE DIVIDE
CITY           SKY/WX    TMP DP  RH WIND       PRES   REMARKS
KALISPELL      CLOUDY    48  39  71 N6        30.13F
MISSOULA       PTSUNNY   54  41  62 VRB3      30.12F
BUTTE          PTSUNNY   54  34  47 SE7       30.20F
MULLAN PASS    FOG       37  37 100 S9        30.10F VSB M1/4 WCI  30
* DEER LODGE   PTSUNNY   59  36  42 E5         N/A
* ESSEX        N/A       46  40  80 SE4        N/A
* HAMILTON APT PTSUNNY   52  39  61 NW6        N/A
* LIBBY APT    CLOUDY    46  43  89 N3         N/A
* LINCOLN      N/A       55  38  53 E2         N/A
* LOOKOUT PASS N/A       42  41  96 S11G17     N/A
* POLSON       N/A       45  45 100 N1         N/A
* SEELEY LAKE  N/A       49  39  69 E1         N/A
* THOMP F APT  CLOUDY    57  26  30 SE7G12     N/A
* YAAK HILL    N/A       50  40  69 S1         N/A
$$

MTZ008-052>055-302300-
SOUTHWEST MONTANA
CITY           SKY/WX    TMP DP  RH WIND       PRES   REMARKS
BOZEMAN        PTCLDY    55  30  39 NW3       30.20F
DILLON         PTCLDY    55  27  34 NE6       30.19F
W YELLOWSTONE  PTSUNNY   54  27  35 SW6       30.29F
* ENNIS APT    PTSUNNY   64  27  25 N/A        N/A
* THREE FORKS  PTSUNNY   55  41  59 N/A        N/A
* BOULDER HILL N/A       51  25  36 S13G18     N/A
* MONIDA PASS  N/A       53  25  34 SE16G24    N/A
* RAYNOLDS PAS N/A       55  35  47 SE15       N/A
* WHITEHALL    N/A       55  30  39 W3         N/A
* WISE RIVER   N/A       50  31  48 W4         N/A
$$

MTZ009>010-012-014-046-048-049-054-302300-
EAST SLOPES AND CENTRAL MONTANA
CITY           SKY/WX    TMP DP  RH WIND       PRES   REMARKS
CUT BANK       PTSUNNY   52  36  55 SE15      30.15F
GREAT FALLS    CLOUDY    57  34  42 E13       30.16F
HELENA         PTSUNNY   54  36  51 NW3       30.18F
MALMSTROM AFB  CLOUDY    57  32  39 SE15      30.18F
* DEARBORN     N/A       56  35  45 NE1        N/A
* EAST GLACIER N/A       49  33  54 W9         N/A
* MONARCH      N/A       51  26  38 NE11       N/A
* SAINT MARY   N/A       53  32  45 W4         N/A
* SWEET GRASS  N/A       51  31  46 S21G29     N/A
* WHITE SULPH  N/A       59  26  28 S12G17     N/A
$$

MTZ011-013-016-021-035-040-045-047-050-051-302300-
NORTH CENTRAL MONTANA
CITY           SKY/WX    TMP DP  RH WIND       PRES   REMARKS
HAVRE          SUNNY     41  34  76 E22       30.24F
LEWISTOWN      PTCLDY    55  34  45 E15       30.23F
* N BAR RANCH  SUNNY     54  30  40 S7G15     30.28F
* FORT BENTON  PTCLDY    57  36  46 E13G20    30.19F
* CHESTER      N/A       48  34  59 E9G14      N/A
* DENTON       N/A       60  30  32 S8G15      N/A
* JUDITH GAP   N/A       54  29  38 SE16G21    N/A
* LOMA         N/A       56  37  49 E14G20     N/A
$$

MTZ017>020-022>027-061-062-302300-
NORTHEAST MONTANA
CITY           SKY/WX    TMP DP  RH WIND       PRES   REMARKS
GLASGOW        CLOUDY    36  28  73 E14       30.40S WCI  27
GLENDIVE       CLOUDY    37  30  76 NE10      30.44R WCI  30
JORDAN         SUNNY     39  34  82 SE12      30.36F WCI  32
SIDNEY         CLOUDY    39  32  76 E7        30.47R WCI  34
WOLF POINT     CLOUDY    37  30  76 E10       30.45S WCI  30
* BEAVER HILL  N/A       35  31  85 NE3G10     N/A
* CIRCLE       N/A       37  33  85 E5G10      N/A   WCI  33
* LINDSAY DVD  N/A       35  31  85 E11        N/A   WCI  27
* NAVAJO       N/A       33  29  85 E9         N/A   WCI  25
* PLENTYWOOD A N/A       34  28  79 E8         N/A   WCI  27
* POPLAR APT   N/A       37  30  76 N/A        N/A
* SACO         N/A       38  31  76 E16        N/A   WCI  29
$$

MTZ028>042-056>058-302300-
SOUTHCENTRAL AND SOUTHEAST MONTANA
CITY           SKY/WX    TMP DP  RH WIND       PRES   REMARKS
BAKER          CLOUDY    37  30  76 E12       30.41R WCI  29
BILLINGS       PTCLDY    57  28  33 E9        30.27F
LIVINGSTON     PTCLDY    59  28  31 E10       30.23F
MILES CITY     SUNNY     48  34  59 E13       30.36S
* FORSYTH APT  SUNNY     52  36  55 E11        N/A
* LAUREL APT   PTCLDY    61  30  31 NE8        N/A
* ROUNDUP APT  PTCLDY    59  30  33 E6         N/A
* ALZADA       N/A       56  34  44 NE7        N/A
* HYSHAM       N/A       56  32  40 E6G13      N/A
* LAME DEER    N/A       52  33  48 NE7        N/A
* REED POINT   N/A       59  27  29 E11        N/A
* ROSCOE HILL  N/A       56  26  32 NE8        N/A
$$

REGIONAL REPORTS...DAKOTAS
CITY           SKY/WX    TMP DP  RH WIND       PRES   REMARKS
WILLISTON      CLOUDY    37  30  76 E8        30.47R WCI  31
DICKINSON      CLOUDY    36  30  79 NE12      30.42R WCI  28
BEACH          N/A       36  32  85 E7        30.44R WCI  30
CROSBY         CLOUDY    32  27  82 E5        30.50R WCI  27
TIOGA          CLOUDY    32  32 100 E7        30.50R WCI  25
BISMARCK       CLOUDY    36  30  79 N9        30.47R WCI  29
GRAND FORKS    PTSUNNY   37  18  46 N22G32    30.41R WCI  26
FARGO          CLOUDY    37  23  57 N24G33    30.39R WCI  26
BUFFALO SD     SUNNY     41  30  65 E12       30.33R
RAPID CITY     SUNNY     48  34  59 NE15      30.35R
$$

REGIONAL REPORTS...WYOMING/IDAHO/WASHINGTON
CITY           SKY/WX    TMP DP  RH WIND       PRES   REMARKS
GILLETTE       SUNNY     57  25  29 N9        30.32S
SHERIDAN       PTCLDY    61  28  29 E7        30.30R
CODY           PTSUNNY   57  27  32 E10       30.27S
YELLOWSTONE LA PTSUNNY   46  27  48 CALM      30.37S
SALMON         PTCLDY    57  34  42 CALM      30.11F
MULLAN PASS    FOG       37  37 100 S9        30.10S VSB M1/4 WCI  30
SAND POINT     N/A       48  45  89 NE15      30.05F
SPOKANE        CLOUDY    54  45  72 NE9       29.99F
$$

REGIONAL REPORTS...ALBERTA
CITY           SKY/WX    TMP DP  RH WIND       PRES   REMARKS
CALGARY        FOG       36  32  85 SE10      30.07F WCI  29
LETHBRIDGE     PTSUNNY   55  32  42 S18G24    30.11F
MEDICINE HAT   PTSUNNY   52  37  57 VRB2      30.20F
EDMONTON       CLOUDY    36  30  79 SE23G29   30.06F WCI  24
WATERTON GATE  N/A       54  32  43 SW9        N/A
CARDSTON       N/A       52  32  47 S9G17      N/A
MILK RIVER     N/A       52  34  50 S20G25     N/A
$$

REGIONAL REPORTS...SASKATCHEWAN
CITY           SKY/WX    TMP DP  RH WIND       PRES   REMARKS
SWIFT CURRENT  CLOUDY    32  30  92 SE23G31   30.33F WCI  19
MOOSE JAW      PTSUNNY   34  27  76 SE13      30.48R WCI  25
REGINA         PTSUNNY   30  25  82 SE13      30.50S WCI  20
VAL MARIE      N/A       36  30  79 SE14       N/A   WCI  27
ASSINIBOIA     N/A       34  28  79 SE10       N/A   WCI  26
CORONACH       N/A       32  28  85 SE10       N/A   WCI  24

$$




USA.gov is the U.S. government's official web portal to all federal, state and local government web resources and services.